TimeEDT,TemperatureF,Dew PointF,Humidity,Sea Level PressureIn,VisibilityMPH,Wind Direction,Wind SpeedMPH,Gust SpeedMPH,PrecipitationIn,Events,Conditions,WindDirDegrees,DateUTC
12:16 AM,50.9,41.0,69,30.05,10.0,Calm,Calm,-,N/A,,Overcast,0,2013-10-03 04:16:00
12:37 AM,52.7,41.5,66,30.05,10.0,Calm,Calm,-,N/A,,Overcast,0,2013-10-03 04:37:00
12:57 AM,52.5,41.5,66,30.04,10.0,Calm,Calm,-,N/A,,Overcast,0,2013-10-03 04:57:00
1:16 AM,53.4,42.8,67,30.03,10.0,Calm,Calm,-,N/A,,Overcast,0,2013-10-03 05:16:00
1:37 AM,53.8,42.3,65,30.03,10.0,SE,3.5,-,N/A,,Overcast,140,2013-10-03 05:37:00
1:56 AM,54.0,42.8,66,30.02,10.0,Calm,Calm,-,N/A,,Overcast,0,2013-10-03 05:56:00
2:17 AM,53.8,42.8,66,30.02,10.0,Calm,Calm,-,N/A,,Overcast,0,2013-10-03 06:17:00
2:37 AM,54.0,42.8,66,30.02,10.0,Calm,Calm,-,N/A,,Overcast,0,2013-10-03 06:37:00
2:56 AM,53.8,42.8,66,30.03,10.0,Calm,Calm,-,N/A,,Overcast,0,2013-10-03 06:56:00
3:17 AM,51.8,42.8,71,30.03,10.0,Calm,Calm,-,N/A,,Overcast,0,2013-10-03 07:17:00
3:36 AM,51.8,42.8,71,30.02,10.0,Calm,Calm,-,N/A,,Overcast,0,2013-10-03 07:36:00
3:57 AM,51.8,42.8,71,30.02,10.0,Calm,Calm,-,N/A,,Overcast,0,2013-10-03 07:57:00
4:16 AM,52.0,42.8,71,30.03,10.0,Calm,Calm,-,N/A,,Overcast,0,2013-10-03 08:16:00
4:37 AM,52.7,42.6,69,30.01,10.0,Calm,Calm,-,N/A,,Overcast,0,2013-10-03 08:37:00
4:57 AM,54.5,42.6,64,30.00,10.0,Calm,Calm,-,N/A,,Overcast,0,2013-10-03 08:57:00
5:16 AM,52.3,43.7,72,30.02,10.0,Calm,Calm,-,N/A,,Overcast,0,2013-10-03 09:16:00
5:37 AM,52.7,41.9,67,30.04,10.0,NNW,3.5,-,N/A,,Overcast,330,2013-10-03 09:37:00
5:57 AM,52.2,42.6,70,30.03,10.0,Calm,Calm,-,N/A,Rain,Light Rain,0,2013-10-03 09:57:00
6:50 AM,51.8,48.2,88,30.01,10.0,Calm,Calm,-,N/A,Rain,Light Rain,0,2013-10-03 10:50:00
7:55 AM,50.0,46.4,87,29.98,10.0,ESE,4.6,-,N/A,Rain,Rain,120,2013-10-03 11:55:00
8:50 AM,51.8,50.0,94,30.01,10.0,Calm,Calm,-,N/A,Rain,Light Rain,0,2013-10-03 12:50:00
9:55 AM,51.8,48.2,88,30.02,10.0,NE,8.1,-,N/A,,Overcast,40,2013-10-03 13:55:00
10:55 AM,51.8,50.0,94,29.99,10.0,NE,6.9,-,N/A,,Mostly Cloudy,40,2013-10-03 14:55:00
11:55 AM,53.6,50.0,88,29.99,10.0,NE,5.8,-,N/A,,Scattered Clouds,40,2013-10-03 15:55:00
12:50 PM,57.2,48.2,72,29.98,10.0,ENE,10.4,-,N/A,,Scattered Clouds,60,2013-10-03 16:50:00
1:55 PM,59.0,48.2,67,30.00,10.0,NE,5.8,-,N/A,,Scattered Clouds,40,2013-10-03 17:55:00
2:50 PM,59.0,50.0,72,29.98,10.0,NE,6.9,-,N/A,,Scattered Clouds,50,2013-10-03 18:50:00
3:55 PM,57.2,50.0,77,29.96,10.0,NNE,13.8,-,N/A,,Scattered Clouds,20,2013-10-03 19:55:00
4:50 PM,57.2,50.0,77,29.97,10.0,NNE,11.5,-,N/A,,Scattered Clouds,20,2013-10-03 20:50:00
5:50 PM,55.4,50.0,82,29.97,10.0,NNE,12.7,-,N/A,,Scattered Clouds,30,2013-10-03 21:50:00
6:50 PM,55.4,50.0,82,29.98,10.0,NE,6.9,-,N/A,,Scattered Clouds,50,2013-10-03 22:50:00
7:50 PM,53.6,50.0,88,29.98,10.0,NE,5.8,-,N/A,,Clear,50,2013-10-03 23:50:00
8:50 PM,53.6,50.0,88,29.98,10.0,ENE,3.5,-,N/A,,Scattered Clouds,70,2013-10-04 00:50:00
9:49 PM,53.6,50.0,88,29.99,10.0,NE,3.5,-,N/A,,Overcast,50,2013-10-04 01:49:00
10:17 PM,53.1,50.2,90,29.99,10.0,ENE,3.5,-,N/A,Rain,Light Rain,60,2013-10-04 02:17:00
10:36 PM,53.2,50.2,89,30.00,10.0,ENE,3.5,-,N/A,Rain,Light Rain,70,2013-10-04 02:36:00
10:57 PM,53.1,50.4,91,30.00,10.0,NE,8.1,-,N/A,Rain,Light Rain,40,2013-10-04 02:57:00
11:17 PM,52.7,50.2,91,30.00,10.0,NE,8.1,-,N/A,Rain,Light Rain,50,2013-10-04 03:17:00
11:36 PM,52.3,50.0,92,29.99,10.0,NE,9.2,-,N/A,Rain,Light Rain,50,2013-10-04 03:36:00